TimeCDT,TemperatureF,Dew PointF,Humidity,Sea Level PressureIn,VisibilityMPH,Wind Direction,Wind SpeedMPH,Gust SpeedMPH,PrecipitationIn,Events,Conditions,WindDirDegrees,DateUTC
12:15 AM,56.8,40.3,54,29.93,10.0,SE,6.9,-,N/A,,Overcast,140,2013-05-28 05:15:00
12:35 AM,56.8,40.6,55,29.92,10.0,ESE,6.9,-,N/A,,Overcast,120,2013-05-28 05:35:00
12:55 AM,56.8,40.8,55,29.92,10.0,SE,6.9,-,N/A,,Overcast,140,2013-05-28 05:55:00
1:15 AM,56.8,41.4,56,29.92,10.0,SE,4.6,-,N/A,,Overcast,130,2013-05-28 06:15:00
1:35 AM,56.8,41.4,56,29.91,10.0,SE,5.8,-,N/A,,Overcast,140,2013-05-28 06:35:00
1:55 AM,56.8,41.5,57,29.91,10.0,SE,5.8,-,N/A,,Overcast,140,2013-05-28 06:55:00
2:15 AM,56.8,42.1,58,29.91,10.0,SE,4.6,-,N/A,,Overcast,130,2013-05-28 07:15:00
2:35 AM,56.8,42.3,58,29.90,10.0,SE,5.8,-,N/A,,Overcast,140,2013-05-28 07:35:00
2:55 AM,52.0,44.4,75,29.89,10.0,Calm,Calm,-,N/A,Rain,Light Rain,0,2013-05-28 07:55:00
3:15 AM,51.8,45.3,79,29.88,10.0,ESE,4.6,-,N/A,Rain,Light Rain,110,2013-05-28 08:15:00
3:35 AM,52.0,44.6,76,29.86,10.0,ESE,5.8,-,N/A,,Overcast,120,2013-05-28 08:35:00
3:55 AM,51.8,43.9,74,29.85,10.0,ESE,3.5,-,N/A,,Mostly Cloudy,120,2013-05-28 08:55:00
4:15 AM,54.1,44.6,70,29.86,10.0,SE,8.1,-,N/A,,Overcast,140,2013-05-28 09:15:00
4:35 AM,54.0,43.7,68,29.86,10.0,SE,6.9,-,N/A,,Overcast,140,2013-05-28 09:35:00
4:55 AM,54.5,43.5,66,29.86,10.0,SE,6.9,-,N/A,,Overcast,140,2013-05-28 09:55:00
5:15 AM,54.3,42.8,65,29.87,10.0,SE,4.6,-,N/A,,Overcast,140,2013-05-28 10:15:00
5:35 AM,53.1,41.0,64,29.85,10.0,SE,5.8,-,N/A,,Overcast,130,2013-05-28 10:35:00
5:55 AM,53.1,41.2,64,29.84,10.0,ESE,5.8,-,N/A,,Overcast,120,2013-05-28 10:55:00
6:15 AM,53.2,41.9,65,29.84,10.0,ESE,3.5,-,N/A,,Overcast,120,2013-05-28 11:15:00
6:35 AM,54.5,43.0,65,29.84,10.0,SE,5.8,-,N/A,,Overcast,130,2013-05-28 11:35:00
6:55 AM,54.5,43.0,65,29.83,10.0,SE,6.9,-,N/A,,Overcast,140,2013-05-28 11:55:00
7:15 AM,54.5,43.5,66,29.83,10.0,SE,5.8,-,N/A,,Overcast,130,2013-05-28 12:15:00
7:35 AM,54.5,44.1,68,29.83,10.0,ESE,8.1,-,N/A,,Overcast,120,2013-05-28 12:35:00
7:55 AM,54.5,44.6,69,29.83,10.0,SE,8.1,-,N/A,,Overcast,130,2013-05-28 12:55:00
8:15 AM,54.5,45.0,70,29.83,10.0,ESE,9.2,-,N/A,,Overcast,120,2013-05-28 13:15:00
8:35 AM,54.5,45.5,72,29.82,10.0,SE,6.9,-,N/A,,Overcast,130,2013-05-28 13:35:00
8:55 AM,54.5,46.2,74,29.82,10.0,ESE,3.5,-,N/A,,Overcast,110,2013-05-28 13:55:00
9:15 AM,54.5,46.6,75,29.82,10.0,SE,6.9,-,N/A,,Overcast,130,2013-05-28 14:15:00
9:35 AM,54.5,46.8,75,29.82,10.0,ESE,6.9,-,N/A,,Overcast,110,2013-05-28 14:35:00
9:55 AM,54.5,47.8,78,29.81,10.0,ESE,6.9,-,N/A,,Overcast,110,2013-05-28 14:55:00
10:15 AM,54.5,47.8,78,29.81,10.0,East,5.8,-,N/A,,Overcast,80,2013-05-28 15:15:00
10:35 AM,54.5,48.2,79,29.81,10.0,ESE,4.6,-,N/A,,Overcast,110,2013-05-28 15:35:00
10:55 AM,55.4,49.1,79,29.81,10.0,ESE,8.1,-,N/A,,Overcast,110,2013-05-28 15:55:00
11:15 AM,56.8,50.5,79,29.80,10.0,SE,8.1,-,N/A,,Overcast,130,2013-05-28 16:15:00
11:35 AM,56.8,50.9,80,29.80,10.0,ESE,4.6,-,N/A,,Overcast,120,2013-05-28 16:35:00
11:55 AM,56.8,51.3,82,29.80,10.0,ESE,8.1,-,N/A,,Overcast,110,2013-05-28 16:55:00
12:15 PM,56.8,51.8,83,29.79,10.0,ESE,5.8,-,N/A,,Overcast,110,2013-05-28 17:15:00
12:35 PM,56.8,51.8,83,29.79,10.0,East,6.9,-,N/A,,Overcast,100,2013-05-28 17:35:00
12:55 PM,56.8,51.8,83,29.79,10.0,ESE,8.1,-,N/A,,Overcast,110,2013-05-28 17:55:00
1:15 PM,56.8,51.4,82,29.79,10.0,SSE,4.6,-,N/A,,Overcast,150,2013-05-28 18:15:00
1:35 PM,56.8,51.6,83,29.79,10.0,ESE,5.8,-,N/A,,Overcast,120,2013-05-28 18:35:00
1:55 PM,56.8,51.6,83,29.79,10.0,ESE,4.6,-,N/A,,Overcast,110,2013-05-28 18:55:00
2:15 PM,56.8,51.8,83,29.79,7.0,ESE,5.8,-,N/A,,Overcast,120,2013-05-28 19:15:00
2:35 PM,56.8,53.1,87,29.79,3.0,SE,5.8,-,N/A,,Overcast,140,2013-05-28 19:35:00
2:55 PM,56.8,53.1,87,29.79,5.0,East,4.6,-,N/A,,Overcast,90,2013-05-28 19:55:00
3:15 PM,56.8,52.2,84,29.78,10.0,ESE,4.6,-,N/A,,Overcast,120,2013-05-28 20:15:00
3:35 PM,56.8,51.8,83,29.78,10.0,SE,5.8,-,N/A,,Overcast,130,2013-05-28 20:35:00
3:55 PM,56.8,51.3,82,29.78,10.0,ESE,8.1,-,N/A,,Overcast,120,2013-05-28 20:55:00
4:15 PM,56.8,52.0,84,29.78,10.0,ESE,6.9,-,N/A,,Overcast,120,2013-05-28 21:15:00
4:35 PM,56.8,52.0,84,29.78,10.0,ESE,6.9,-,N/A,,Overcast,120,2013-05-28 21:35:00
4:55 PM,56.8,52.9,87,29.77,5.0,ESE,3.5,-,N/A,Rain,Rain,110,2013-05-28 21:55:00
5:15 PM,56.8,53.1,87,29.77,10.0,SE,4.6,-,N/A,,Overcast,140,2013-05-28 22:15:00
5:35 PM,56.8,52.5,85,29.77,10.0,SSE,6.9,-,N/A,,Overcast,160,2013-05-28 22:35:00
5:55 PM,56.8,52.7,86,29.77,10.0,SSE,4.6,-,N/A,,Overcast,160,2013-05-28 22:55:00
6:15 PM,56.8,52.3,85,29.78,10.0,South,4.6,-,N/A,,Overcast,170,2013-05-28 23:15:00
6:35 PM,56.8,52.9,87,29.78,10.0,South,4.6,-,N/A,,Overcast,170,2013-05-28 23:35:00
6:55 PM,56.8,53.1,87,29.78,10.0,SE,5.8,-,N/A,,Overcast,140,2013-05-28 23:55:00
7:15 PM,56.8,53.2,88,29.78,10.0,South,4.6,-,N/A,,Overcast,170,2013-05-29 00:15:00
7:35 PM,56.8,54.0,90,29.77,10.0,SSE,3.5,-,N/A,,Overcast,150,2013-05-29 00:35:00
7:55 PM,56.8,54.1,91,29.77,7.0,Calm,Calm,-,N/A,,Overcast,0,2013-05-29 00:55:00
8:15 PM,56.8,54.5,92,29.77,10.0,SSE,3.5,-,N/A,,Overcast,160,2013-05-29 01:15:00
8:35 PM,56.8,54.5,92,29.76,10.0,Calm,Calm,-,N/A,,Overcast,0,2013-05-29 01:35:00
8:55 PM,56.8,54.5,92,29.76,10.0,Calm,Calm,-,N/A,,Overcast,0,2013-05-29 01:55:00
9:15 PM,56.8,54.5,92,29.76,10.0,Calm,Calm,-,N/A,,Overcast,0,2013-05-29 02:15:00
9:35 PM,56.8,54.5,92,29.74,10.0,Calm,Calm,-,N/A,,Overcast,0,2013-05-29 02:35:00
9:55 PM,56.8,54.5,92,29.76,10.0,Calm,Calm,-,N/A,,Overcast,0,2013-05-29 02:55:00
10:15 PM,56.8,54.5,92,29.76,10.0,Calm,Calm,-,N/A,,Overcast,0,2013-05-29 03:15:00
10:35 PM,56.8,54.5,92,29.78,10.0,Calm,Calm,-,N/A,,Overcast,0,2013-05-29 03:35:00
10:55 PM,56.8,54.7,92,29.78,10.0,SSW,5.8,-,N/A,,Overcast,210,2013-05-29 03:55:00
11:15 PM,56.8,54.7,92,29.79,10.0,SW,6.9,-,N/A,,Overcast,220,2013-05-29 04:15:00
11:35 PM,56.8,54.9,93,29.79,3.0,Calm,Calm,-,N/A,,Overcast,0,2013-05-29 04:35:00
11:55 PM,56.8,54.9,93,29.79,5.0,SSW,4.6,-,N/A,,Overcast,200,2013-05-29 04:55:00